Probability
0 0 0 0 0 0 0 0 0 0 0 0 0 0 0 0 0 0 0 0 0 0 0 0 0 0 0 0 0 0 0 0 0 0 0 0 0 0
0 0 0 3 0 0 0 0 0 0 0 0 0 0 0 0 0 0 0 0 0 0 0 0 0 0 0 0 0 0 0 0 0 0 0 0 0 0
3 0 0 0 0 0 0 0 0 0 0 0 0 0 0 0 0 0 0 0 0 0 0 0 0 0 0 0 0 0 0 0 0 0 0 0 0 0
3 3 3 0 0 0 0 0 0 0 0 0 0 0 0 0 0 0 0 0 0 0 0 0 0 0 0 0 0 0 0 0 0 0 0 0 0 0
3 3 3 0 0 0 0 0 0 0 0 0 0 0 0 0 0 0 0 0 0 0 0 0 0 0 0 0 0 0 0 0 0 0 0 0 0 0
3 3 3 0 0 0 0 0 0 0 0 0 0 0 0 0 0 0 0 0 0 0 0 0 0 0 0 0 0 0 0 0 0 0 0 0 0 0
3 3 3 3 0 0 0 0 0 0 0 0 0 0 0 0 0 0 0 0 0 0 0 0 0 0 0 0 0 0 0 0 0 0 0 0 0 0
3 3 0 0 0 0 0 0 0 0 0 0 0 0 0 0 0 0 0 0 0 0 0 0 0 0 0 0 0 0 0 0 0 0 0 0 0 0
3 0 0 0 0 0 0 0 0 0 0 0 0 0 0 0 0 0 0 0 0 0 0 0 0 0 0 0 0 0 0 0 0 0 0 0 0 0
3 0 0 0 0 0 0 0 0 0 0 0 0 0 0 0 0 0 0 0 0 0 0 0 0 0 0 0 0 0 0 0 0 0 0 0 0 0
0 0 0 0 0 0 0 0 0 0 0 0 0 0 0 0 0 0 0 0 0 0 0 0 0 0 0 0 0 0 0 0 0 0 0 0 0 0
0 0 0 0 0 0 0 0 0 0 0 0 0 0 0 0 0 0 0 0 0 0 0 0 0 0 0 0 0 0 0 0 0 0 0 0 0 0
0 0 0 0 0 0 0 0 0 0 0 0 0 0 0 0 0 0 0 0 0 0 0 0 0 0 0 0 0 0 0 0 0 0 0 0 0 0
0 0 0 0 0 0 0 0 0 0 0 0 0 0 0 0 0 0 0 0 0 0 0 0 0 0 0 0 0 0 0 0 0 0 0 0 0 0
0 0 0 0 0 0 0 0 0 0 0 0 0 0 0 0 0 0 0 0 0 0 0 0 0 0 0 0 0 0 0 0 0 0 0 0 0 0
0 0 0 0 0 0 0 0 0 0 0 0 0 0 0 0 0 0 0 0 0 0 0 0 0 0 0 0 0 0 0 0 0 0 0 0 0 0
0 0 0 0 0 0 0 0 0 0 0 0 0 0 0 0 0 0 0 0 0 0 0 0 0 0 0 0 0 0 0 0 0 0 0 0 0 0
0 0 0 0 0 0 0 0 0 0 0 0 0 0 0 0 0 0 0 0 0 0 0 0 0 0 0 0 0 0 0 0 0 0 0 0 0 0
0 0 0 0 0 0 0 0 0 0 0 0 0 0 0 0 0 0 0 0 0 0 0 0 0 0 0 0 0 0 0 0 0 0 0 0 0 0
0 0 0 0 0 0 0 0 0 0 0 0 0 0 0 0 0 0 0 0 0 0 0 0 0 0 0 0 0 0 0 0 0 0 0 0 0 0
0 0 0 0 0 0 0 0 0 0 0 0 0 0 0 0 0 0 0 0 0 0 0 0 0 0 0 0 0 0 0 0 0 0 0 0 0 0
0 0 0 0 0 0 0 0 0 0 0 0 0 0 0 0 0 0 0 0 0 0 0 0 0 0 0 0 0 0 0 0 0 0 0 0 0 0
0 0 0 0 0 0 0 0 0 0 0 0 0 0 0 0 0 0 0 0 0 0 0 0 0 0 0 0 0 0 0 0 0 0 0 0 0 0
Height
5762 5760 5758 5755 5752 5749 5746 5743 5741 5739 5736 5733 5730 5727 5724 5722 5720 5718 5717 5716 5715 5714 5713 5712 5712 5712 5712 5713 5714 5715 5716 5717 5718 5720 5721 5723 5726 5728
5756 5754 5751 5748 5745 5742 5739 5736 5733 5730 5728 5725 5722 5718 5715 5713 5711 5709 5708 5706 5705 5704 5703 5703 5702 5702 5702 5703 5703 5704 5705 5706 5708 5709 5711 5713 5715 5717
5750 5748 5745 5741 5738 5735 5732 5728 5725 5722 5719 5717 5713 5710 5707 5704 5702 5700 5698 5696 5695 5694 5693 5693 5692 5692 5692 5692 5693 5693 5694 5696 5697 5698 5700 5702 5704 5707
5744 5741 5738 5734 5731 5728 5724 5721 5717 5714 5711 5708 5705 5702 5699 5695 5693 5691 5688 5687 5685 5684 5683 5683 5682 5682 5682 5682 5682 5683 5684 5685 5686 5687 5688 5690 5692 5694
5738 5734 5731 5728 5725 5721 5717 5713 5710 5706 5703 5699 5696 5693 5690 5687 5685 5682 5680 5678 5676 5674 5673 5673 5672 5672 5672 5672 5672 5672 5673 5673 5674 5675 5676 5678 5680 5682
5732 5728 5725 5721 5718 5714 5710 5706 5703 5699 5695 5692 5689 5685 5682 5679 5676 5673 5671 5669 5666 5665 5663 5662 5662 5662 5662 5662 5661 5661 5661 5661 5662 5663 5664 5666 5668 5670
5726 5723 5719 5715 5711 5707 5703 5700 5696 5692 5688 5684 5681 5678 5674 5671 5667 5664 5662 5659 5657 5655 5654 5653 5652 5652 5651 5650 5650 5650 5650 5650 5650 5651 5652 5654 5656 5658
5722 5718 5714 5709 5705 5701 5697 5693 5689 5685 5681 5677 5674 5670 5666 5662 5659 5655 5652 5650 5648 5647 5644 5643 5642 5641 5640 5640 5639 5639 5639 5639 5639 5640 5641 5642 5644 5646
5717 5713 5709 5705 5700 5696 5691 5687 5682 5678 5674 5670 5666 5662 5658 5654 5650 5647 5643 5641 5639 5637 5635 5634 5632 5631 5629 5628 5628 5628 5628 5628 5628 5629 5629 5631 5633 5634
5713 5709 5705 5700 5695 5691 5686 5681 5677 5672 5667 5663 5659 5654 5650 5645 5642 5638 5635 5632 5630 5627 5625 5624 5623 5621 5619 5618 5618 5617 5617 5617 5617 5618 5619 5620 5621 5623
5709 5705 5700 5695 5690 5686 5681 5676 5671 5666 5661 5656 5651 5646 5642 5637 5633 5630 5627 5624 5621 5619 5616 5614 5613 5611 5610 5609 5608 5607 5607 5607 5607 5608 5608 5609 5610 5612
5705 5701 5695 5690 5685 5680 5675 5670 5665 5660 5654 5649 5644 5639 5634 5629 5625 5621 5618 5615 5612 5610 5607 5605 5604 5602 5601 5600 5599 5598 5598 5597 5598 5598 5598 5599 5600 5601
5701 5696 5691 5686 5680 5675 5669 5664 5658 5653 5647 5641 5636 5631 5626 5621 5617 5613 5609 5606 5603 5601 5599 5596 5594 5592 5591 5590 5589 5589 5589 5588 5588 5589 5589 5590 5590 5591
5697 5692 5687 5681 5675 5670 5664 5658 5652 5646 5640 5634 5628 5623 5618 5613 5609 5605 5601 5598 5594 5592 5590 5587 5585 5583 5582 5581 5580 5580 5580 5580 5580 5580 5580 5580 5581 5582
5693 5688 5682 5676 5670 5665 5659 5652 5646 5640 5633 5627 5621 5615 5610 5605 5601 5597 5593 5590 5587 5583 5581 5579 5577 5575 5574 5572 5572 5571 5571 5571 5571 5571 5571 5572 5572 5573
5689 5684 5678 5672 5666 5660 5653 5647 5640 5633 5627 5620 5614 5608 5603 5598 5593 5589 5586 5582 5579 5576 5573 5571 5569 5567 5566 5565 5564 5563 5563 5563 5563 5562 5563 5563 5564 5564
5686 5680 5674 5668 5662 5655 5648 5641 5634 5627 5621 5614 5608 5602 5596 5591 5586 5582 5578 5574 5571 5569 5567 5564 5561 5559 5558 5558 5557 5556 5555 5555 5555 5555 5555 5555 5556 5556
5682 5676 5670 5664 5657 5650 5643 5636 5629 5622 5615 5608 5602 5596 5590 5585 5579 5574 5570 5567 5564 5561 5559 5557 5555 5553 5552 5551 5550 5549 5548 5548 5547 5547 5547 5547 5548 5548
5678 5672 5666 5659 5652 5645 5638 5631 5623 5617 5610 5603 5597 5590 5585 5579 5573 5568 5563 5560 5556 5554 5551 5550 5548 5546 5545 5544 5543 5542 5541 5540 5540 5539 5539 5539 5540 5540
5675 5668 5662 5655 5648 5641 5633 5626 5619 5612 5605 5598 5592 5585 5579 5573 5567 5562 5557 5553 5550 5547 5545 5543 5541 5539 5538 5537 5536 5535 5534 5533 5532 5532 5532 5532 5532 5533
5671 5664 5658 5651 5644 5637 5629 5622 5615 5608 5601 5594 5587 5581 5574 5568 5562 5557 5552 5548 5544 5541 5539 5537 5534 5533 5531 5530 5530 5528 5527 5526 5525 5524 5524 5525 5526 5527
5668 5661 5654 5647 5640 5633 5626 5619 5612 5605 5598 5591 5584 5577 5570 5564 5559 5553 5548 5543 5539 5536 5533 5531 5528 5527 5525 5524 5522 5521 5520 5520 5519 5518 5518 5519 5520 5521
5665 5658 5651 5644 5637 5630 5623 5616 5609 5602 5595 5588 5581 5574 5568 5561 5555 5550 5544 5540 5535 5532 5529 5526 5524 5522 5520 5518 5516 5515 5514 5514 5514 5514 5514 5514 5514 5515
Wind_Speed
22 23 23 23 24 24 25 26 26 26 26 27 28 29 29 29 30 30 30 30 31 31 32 33 32 32 33 33 34 34 34 34 34 35 36 38 38 38
22 23 23 23 24 25 26 26 26 27 26 26 28 29 30 30 30 31 31 31 31 31 31 32 32 32 33 33 34 35 36 36 35 36 37 38 38 38
21 22 23 24 25 25 26 26 26 27 26 26 27 28 29 29 30 30 31 31 31 31 31 32 32 32 33 33 34 35 36 36 37 36 37 38 39 40
21 22 22 23 24 24 25 25 26 26 27 27 27 27 28 29 29 29 30 30 30 30 31 31 32 32 32 32 33 35 35 36 37 38 37 38 39 40
21 21 22 23 24 24 25 25 26 27 27 27 27 27 28 28 28 29 29 30 31 31 31 31 31 32 32 32 33 34 35 37 39 40 39 39 39 39
21 22 23 23 24 24 24 25 26 27 27 27 26 26 27 28 29 29 29 30 30 30 31 31 31 31 32 33 33 35 35 36 37 38 39 39 40 40
20 21 22 23 23 23 24 24 26 26 27 26 26 27 27 27 28 28 28 28 28 29 30 30 31 32 32 32 33 33 34 34 35 36 37 38 39 40
19 20 21 22 22 23 24 24 25 25 25 26 26 26 27 28 28 28 29 29 28 28 29 29 30 31 31 32 32 33 33 34 34 35 36 37 37 38
19 20 21 22 22 23 24 24 25 25 26 26 27 27 29 29 28 28 29 28 27 27 28 29 30 31 30 31 31 31 32 32 33 33 34 36 37 37
19 21 21 22 23 23 24 25 26 26 27 28 28 29 29 29 28 28 28 27 27 27 28 28 29 30 30 30 31 31 30 31 31 32 33 34 35 37
21 22 23 23 24 25 25 26 27 27 28 29 29 30 29 29 29 28 28 28 27 27 27 27 27 28 28 29 29 29 29 29 30 31 32 33 34 34
22 23 25 25 25 26 26 27 28 28 29 29 29 29 29 29 28 27 27 27 27 27 27 27 26 27 26 27 28 28 28 29 29 29 30 32 33 33
23 24 25 25 26 27 28 29 30 30 30 30 30 30 30 29 28 27 27 26 26 26 26 26 25 25 25 25 26 27 27 27 27 28 28 30 31 32
23 24 25 26 27 28 29 30 31 30 30 31 30 30 29 27 27 27 27 27 27 26 26 25 25 25 25 25 25 26 26 26 26 27 27 28 29 29
23 24 25 27 28 29 30 30 31 31 31 31 30 29 28 27 26 26 26 26 26 26 26 26 26 25 25 24 23 24 25 26 25 26 27 27 27 27
24 25 26 27 29 30 31 31 32 32 31 31 30 29 28 27 25 24 24 24 24 24 25 26 26 26 24 23 22 22 23 25 25 25 25 25 26 25
25 26 28 29 30 31 32 32 33 32 31 30 29 28 27 27 26 25 25 24 24 23 23 23 23 23 23 22 22 22 23 23 24 24 23 24 25 26
26 28 29 30 31 32 32 33 33 32 31 29 29 28 28 27 27 26 25 24 24 23 22 22 22 21 21 20 21 21 21 22 23 23 23 23 24 26
28 29 30 31 31 32 33 33 32 31 31 30 30 29 29 28 26 25 24 23 23 22 22 21 20 20 19 18 19 20 20 21 22 23 23 23 24 25
28 29 30 31 31 32 33 33 32 31 31 31 30 29 28 27 26 25 23 22 21 20 20 20 20 19 18 18 18 19 20 20 21 22 22 22 22 23
28 29 30 30 31 32 32 32 31 31 31 31 30 29 28 27 25 24 23 22 21 20 19 19 19 19 19 19 19 19 19 19 19 19 20 20 19 20
28 29 30 30 31 31 31 31 31 31 31 31 30 29 29 27 26 25 23 22 21 20 19 19 19 18 18 19 19 19 18 17 17 17 17 17 18 18
30 30 30 31 30 30 30 30 31 31 31 31 31 30 29 28 26 25 24 22 21 20 19 18 17 16 17 18 17 17 16 16 16 16 16 16 16 17
Wind_Direction
293 294 295 295 296 296 295 294 292 290 289 287 286 285 285 282 279 277 276 275 273 271 270 268 267 265 262 260 258 256 255 255 253 253 251 249 248 248
296 296 297 297 297 298 298 297 295 293 291 289 287 286 286 285 282 280 278 276 274 271 270 268 267 265 263 261 258 256 255 254 254 253 252 250 248 248
297 298 298 298 298 298 298 298 298 297 294 292 290 288 287 286 285 283 280 277 275 273 271 269 268 267 265 262 260 258 256 255 255 253 253 251 249 247
299 300 300 300 299 299 299 300 300 300 298 295 292 290 288 288 286 284 282 279 275 273 271 270 269 267 265 263 261 259 257 256 255 254 254 253 250 247
302 303 304 304 304 303 302 300 300 301 301 299 295 292 290 289 288 286 282 279 276 274 273 270 268 266 264 264 263 260 258 256 256 255 255 253 251 248
305 306 306 306 306 305 303 302 301 301 301 301 298 296 295 292 290 288 285 283 279 277 274 271 269 267 265 265 265 262 260 259 258 256 256 254 252 249
310 312 313 312 310 309 307 305 305 305 303 302 300 299 298 297 294 291 289 286 282 279 275 273 271 269 267 268 266 264 261 260 260 259 257 255 252 249
318 319 318 317 316 315 313 311 310 309 308 306 305 303 302 301 297 294 291 288 284 280 277 275 273 271 269 268 266 263 262 262 260 258 256 253 252 250
322 322 322 321 321 319 317 315 314 313 310 309 307 306 305 304 300 296 292 290 286 282 278 275 275 274 272 268 266 264 263 263 261 258 256 254 252 251
324 323 323 322 321 321 319 317 314 313 312 311 310 308 307 305 303 299 295 292 288 286 282 279 279 275 273 270 266 264 265 263 261 261 258 255 254 252
325 325 325 324 322 322 320 318 316 314 313 312 310 309 307 305 303 300 297 292 288 286 285 283 281 276 273 272 268 266 265 265 263 262 260 256 255 254
327 326 326 325 324 323 322 320 318 316 315 313 311 309 307 304 303 301 298 295 291 287 284 283 281 278 274 271 267 266 266 266 264 262 260 258 254 253
327 327 327 326 326 325 325 324 322 321 318 316 313 312 310 307 303 300 299 296 292 288 286 285 284 281 278 273 269 266 265 265 264 262 261 259 256 255
331 330 329 329 329 329 328 326 326 324 322 319 317 315 313 309 305 302 300 298 294 291 287 286 287 284 281 276 270 267 265 264 262 261 261 259 258 256
333 332 332 332 332 330 329 329 328 327 325 322 320 317 314 311 307 302 299 297 295 292 289 287 287 286 284 279 274 270 266 262 261 261 261 259 257 255
335 334 333 332 332 331 330 330 329 328 326 326 323 319 317 313 309 305 301 297 294 292 290 289 287 285 282 280 275 272 267 264 262 262 261 261 258 256
336 335 334 333 332 332 331 330 330 328 328 327 326 323 322 319 314 310 306 302 297 293 292 292 290 288 284 280 275 272 271 268 265 263 260 260 259 256
337 336 336 334 333 332 332 332 332 331 331 329 328 328 326 322 319 314 309 305 301 296 293 291 290 289 284 279 275 273 272 270 269 266 261 259 258 255
338 337 336 335 335 335 336 336 335 335 334 332 330 329 327 325 322 318 313 308 304 299 294 291 289 288 283 278 275 276 275 273 270 268 266 263 257 253
337 336 336 336 337 338 338 338 339 338 338 337 334 332 330 328 325 323 319 314 310 305 297 292 289 288 285 282 279 279 279 276 272 268 266 263 260 256
340 340 340 339 339 340 341 342 342 342 342 341 339 338 336 334 331 329 325 321 316 311 305 299 296 292 290 288 286 284 280 276 272 267 264 262 260 256
343 343 342 341 341 342 344 344 345 345 345 344 344 343 341 339 336 334 331 328 323 317 311 306 302 296 292 290 289 285 280 274 272 269 267 264 261 256
344 345 345 344 344 344 346 347 347 347 347 347 347 346 345 344 341 339 337 335 331 326 320 314 307 301 296 294 291 285 279 273 271 269 269 267 264 259